Regional Weather Roundup
Issued by NWS

Home | Current Version | Previous Version | Text Only | Print | Product List | Glossary Off
Versions: 1 2 3 4 5 6 7 8 9 10 11 12 13 14 15 16 17 18 19 20 21 22 23 24 25 26 27 28 29 30 31 32 33 34 35 36 37 38 39 40 41 42 43 44 45 46 47 48 49 50

000
ASUS43 KMKX 170910
RWRWI

WISCONSIN REGIONAL WEATHER ROUNDUP
NATIONAL WEATHER SERVICE MILWAUKEE/SULLIVAN WI
300 AM CST WED JAN 17 2018

NOTE: "FAIR" INDICATES FEW OR NO CLOUDS BELOW 12,000 FEET WITH NO
SIGNIFICANT WEATHER AND/OR OBSTRUCTIONS TO VISIBILITY.

WIZ001-002-006>008-014>016-023>028-171000-
NORTHWEST WISCONSIN

CITY           SKY/WX    TMP DP  RH WIND       PRES   REMARKS
SUPERIOR ARPT  FAIR       4  -3  72 SW13      30.33F WCI -13
ASHLAND        FAIR       6  -2  69 SW14      30.31F WCI -11
HAYWARD        FAIR       1  -4  79 SW8       30.35F WCI -13
SIREN          FAIR       2  -4  75 SW10G16   30.39F WCI -14
CUMBERLAND     FAIR      -2  -6  84 SW10      30.38F WCI -19
RICE LAKE      FAIR      -3  -6  84 CALM      30.42F
CHETEK         FAIR      -4  -8  85 SW3       30.42F
LADYSMITH      FAIR      -2  -6  84 S7        30.40F WCI -16
EAU CLAIRE     FAIR      -5  -8  87 SW6       30.45F WCI -18
MENOMONIE      FAIR      -6  -9  83 CALM      30.46F
NEW RICHMOND   LGT SNOW  -4  -9  80 S7        30.43F WCI -18
OSCEOLA        FAIR      -3  -7  83 S8        30.46F WCI -18
$$

WIZ003>005-009-010-017-018-171000-
NORTH CENTRAL WISCONSIN

CITY           SKY/WX    TMP DP  RH WIND       PRES   REMARKS
MANITOWISH WTR CLOUDY     2  -2  83 SW10      30.26F WCI -14
ARBOR VITAE    MOCLDY     4   0  82 W7        30.28F WCI  -8
WOODRUFF       MOCLDY     4   0  82 W7        30.28F WCI  -8
RHINELANDER    MOCLDY     1  -3  83 W8        30.29F WCI -13
EAGLE RIVER    FAIR       3  -2  79 SW10      30.26F WCI -12
LAND O LAKES   MOCLDY     5   0  81 SW6       30.25F WCI  -6
PHILLIPS       FAIR      -2  -5  85 SW7       30.33S WCI -15
TOMAHAWK       FAIR      -1  -4  84 SW3       30.33F
MEDFORD        FAIR      -4  -8  84 SW6       30.36F WCI -17
MERRILL        FAIR      -2  -6  84 W5        30.37S WCI -12
$$

WIZ029-030-035-036-043>047-171000-
CENTRAL WISCONSIN

CITY           SKY/WX    TMP DP  RH WIND       PRES   REMARKS
WAUSAU         FAIR      -2  -5  87 W5        30.37F WCI -12
MOSINEE        FAIR      -2  -4  92 W9        30.40F WCI -18
MARSHFIELD     FAIR      -4  -7  87 SW7       30.40F WCI -18
STEVENS POINT  FAIR      -1  -4  87 W8        30.42F WCI -16
WAUPACA        FAIR       5  -1  76 W8        30.45F WCI  -9
WAUTOMA        FAIR       0  -4  83 W8          N/A  WCI -14
WISC RAPIDS    FAIR      -1  -6  79 W7        30.46F WCI -14
CAMP DOUGLAS   FAIR      -4  -7  85 CALM      30.48S
$$

WIZ011>013-019>022-031-037>040-048>050-171000-
NORTHEAST WISCONSIN

CITY           SKY/WX    TMP DP  RH WIND       PRES   REMARKS
ANTIGO         FAIR      -1  -4  86 W7        30.32F WCI -14
SHAWANO        FAIR       7   1  78 SW7       30.40F WCI  -5
OCONTO         FAIR       6   3  88 SW8       30.39F WCI  -7
STURGEON BAY   FAIR       8   4  83 SW12      30.38F WCI  -7
GREEN BAY      FAIR       6   0  76 SW8       30.43S WCI  -7
MANITOWOC      FAIR       7   3  84 W10       30.45R WCI  -8
APPLETON       FAIR       3  -2  78 W12       30.41F WCI -13
CLINTONVILLE   FAIR       5   0  78 W7        30.41F WCI  -7
OSHKOSH        FAIR       4   0  83 W7        30.45F WCI  -8
$$

WIZ032>034-041-042-053>061-171000-
SOUTHWEST WISCONSIN

CITY           SKY/WX    TMP DP  RH WIND       PRES   REMARKS
LA CROSSE      FAIR      -1  -7  75 S7        30.54F WCI -14
SPARTA         FAIR      -3  -6  87 CALM      30.52S
VIROQUA        FAIR      -4  -7  90 W6        30.47S WCI -17
BOSCOBEL       FAIR      -2  -7  79 SW8       30.57F WCI -17
PRAIRIE DU CHI FAIR      -3  -8  77 CALM      30.57F
PLATTEVILLE    FAIR      -3  -6  88 W8        30.53F WCI -18
$$

WIZ056-057-062-063-064-067-068-171000-
SOUTH CENTRAL WISCONSIN

CITY           SKY/WX    TMP DP  RH WIND       PRES   REMARKS
REEDSBURG      FAIR       0  -3  85 W3        30.49F
BARABOO/DELLS  FAIR       1  -3  85 SW5       30.47F WCI  -9
LONE ROCK      FAIR      -1  -4  87 W5        30.54F WCI -11
MINERAL POINT  FAIR       0  -4  85 W5        30.49F WCI -10
MADISON        FAIR       3   0  87 CALM      30.50F
MIDDLETON      FAIR       4   2  88 W6        30.50F WCI  -6
WATERTOWN      FAIR       0  -1  92 CALM      30.49F
MONROE         FAIR       1  -2  85 W17       30.49F WCI -19
JANESVILLE     FAIR       3   0  85 CALM      30.52F
$$

WIZ051-052-058>065-066-070>072-171000-
SOUTHEAST WISCONSIN

CITY           SKY/WX    TMP DP  RH WIND       PRES   REMARKS
MILWAUKEE      FAIR      11   6  81 W8        30.49F WCI  -1
WAUKESHA       FAIR       7   3  85 SW6       30.49F WCI  -3
MILWAUKEE/TIMM FAIR       9   3  78 W7        30.49F WCI  -3
RACINE         FAIR       8   5  87 W9        30.51S WCI  -5
BURLINGTON     FAIR       2  -2  83 SW6       30.51S WCI  -9
KENOSHA        FAIR       5   1  83 W6        30.50S WCI  -6
FOND DU LAC    FAIR       5  -1  76 SW3       30.47F
SHEBOYGAN      FAIR       7   3  84 W10       30.45F WCI  -8
WEST BEND      FAIR       7   5  92 W8        30.45F WCI  -6
JUNEAU         FAIR      -2  -4  89 SW3       30.47F
$$

LSZ147-162-171000-
LAKE SUPERIOR

STATION/POSITION TIME  TEMP    WIND        PRES    WAVE
                       AIR SEA DIR/SP/G            HT/PER
                 (UTC) (F)     (DEG/KT/KT) (MB)    (FT/S)
DEVILS ISLAND    0900   11     220/ 24/ 30 1025.0F
SAXON HARBOR     0840   10     200/  9/ 14 1025.7F
$$

LMZ867-665-643>646-171000-
LAKE MICHIGAN

STATION/POSITION TIME  TEMP    WIND        PRES    WAVE
                       AIR SEA DIR/SP/G            HT/PER
                 (UTC) (F)     (DEG/KT/KT) (MB)    (FT/S)
NORTHPORT PIER   0857   10     240/ 13/ 39 1027.4F
KEWAUNEE LAKESHO 0842    9     270/  8/ 11 1029.2R
SHEBOYGAN LAKESH 0900    9     260/ 13/ 16 1032.4F
PORT WASHINGTON  0830   10     280/  7/ 12 1033.2F
MILWAUKEE LAKESH 0850   12     290/ 11/ 13   N/A
KENOSHA   LAKESH 0900    9     270/ 12/ 15 1032.5
$$

TC  - TEMPERATURE IN CELSIUS
VSB - VISIBILITY IN STATUTE MILES
WCI - WIND CHILL INDEX
HX  - HEAT INDEX




USA.gov is the U.S. government's official web portal to all federal, state and local government web resources and services.